Location: Albuquerque Trailhead
(34.7934°N, 106.3736°W)
Time: 05:31:39
(UTC+00:00)

USA 267 - Pass Details

Date: 20 June 2021
Orbit: 1102 x 1106 km, 123.0° (Epoch: 24 July)

Event Time Altitude Azimuth Distance (km) Brightness Sun altitude
Exits shadow 08:28:26 59° 257° (WSW) 1,252 3.3 -28.7°
Drops below altitude 10° 08:34:15 10° 310° (NW) 2,961 5.7 -28.2°
Sets 08:36:47 0° 314° (NW) 3,922 6.4 -28.0°
